Location: Gollag?dem
(16.8053°N, 80.8024°E)
Time: 17:27:30
(UTC+00:00)

ERS-2 - Pass Details

Date: 13 August 2020
Orbit: 494 x 498 km, 98.6° (Epoch: 18 September)

Event Time Altitude Azimuth Distance (km) Brightness Sun altitude
Exits shadow 23:25:28 22° 264° (W) 1,129 3.3 -13.3°
Drops below altitude 10° 23:28:08 10° 312° (NW) 1,687 4.5 -12.7°
Sets 23:30:34 0° 328° (NNW) 2,571 5.6 -12.2°
